TimeCDT,TemperatureF,Dew PointF,Humidity,Sea Level PressureIn,VisibilityMPH,Wind Direction,Wind SpeedMPH,Gust SpeedMPH,PrecipitationIn,Events,Conditions,WindDirDegrees,DateUTC
12:05 AM,42.8,39.2,87,30.15,9.0,North,16.1,-,N/A,,Overcast,350,2013-05-05 05:05:00
12:39 AM,42.8,39.2,87,30.15,9.0,North,16.1,-,N/A,,Overcast,350,2013-05-05 05:39:00
12:54 AM,43.0,39.0,86,30.17,8.0,North,16.1,-,N/A,,Overcast,350,2013-05-05 05:54:00
1:54 AM,43.0,39.9,89,30.16,8.0,North,13.8,-,N/A,,Overcast,350,2013-05-05 06:54:00
2:54 AM,43.0,39.0,86,30.15,7.0,NNW,15.0,-,N/A,,Overcast,340,2013-05-05 07:54:00
3:54 AM,43.0,39.0,86,30.14,6.0,NNW,13.8,-,N/A,,Overcast,340,2013-05-05 08:54:00
4:43 AM,42.8,39.2,87,30.15,4.0,NNW,12.7,-,0.00,Rain,Light Rain,340,2013-05-05 09:43:00
4:54 AM,43.0,39.0,86,30.15,4.0,NNW,11.5,-,0.00,Rain,Light Rain,340,2013-05-05 09:54:00
5:06 AM,42.8,39.2,87,30.15,1.8,NNW,11.5,-,0.01,Rain,Light Rain,340,2013-05-05 10:06:00
5:41 AM,42.8,39.2,87,30.14,2.0,North,10.4,-,0.02,Rain,Light Rain,350,2013-05-05 10:41:00
5:54 AM,42.1,39.0,89,30.15,3.0,North,12.7,-,0.02,Rain,Light Rain,350,2013-05-05 10:54:00
6:29 AM,42.8,39.2,87,30.15,3.0,North,16.1,-,0.00,,Overcast,350,2013-05-05 11:29:00
6:54 AM,43.0,39.0,86,30.16,4.0,North,12.7,-,0.00,,Overcast,350,2013-05-05 11:54:00
7:21 AM,42.8,39.2,87,30.17,4.0,North,12.7,-,N/A,,Overcast,350,2013-05-05 12:21:00
7:54 AM,43.0,39.9,89,30.17,4.0,NNW,12.7,-,N/A,,Overcast,340,2013-05-05 12:54:00
8:54 AM,44.1,39.9,85,30.18,5.0,North,12.7,-,N/A,,Overcast,350,2013-05-05 13:54:00
9:54 AM,45.0,41.0,86,30.18,6.0,NNW,13.8,-,N/A,,Overcast,340,2013-05-05 14:54:00
10:12 AM,46.4,41.0,81,30.17,5.0,NNW,11.5,-,N/A,,Haze,340,2013-05-05 15:12:00
10:54 AM,46.9,42.1,83,30.18,3.0,North,11.5,-,N/A,,Haze,360,2013-05-05 15:54:00
11:21 AM,48.2,42.8,82,30.18,2.5,NNW,10.4,-,N/A,,Haze,340,2013-05-05 16:21:00
11:36 AM,48.2,42.8,82,30.18,3.0,North,12.7,-,N/A,,Haze,360,2013-05-05 16:36:00
11:54 AM,48.9,43.0,80,30.19,2.5,North,12.7,-,N/A,,Haze,360,2013-05-05 16:54:00
12:39 PM,51.8,44.6,76,30.17,3.0,North,8.1,-,N/A,,Haze,360,2013-05-05 17:39:00
1:54 PM,53.1,46.0,77,30.16,4.0,North,9.2,-,N/A,,Haze,350,2013-05-05 18:54:00
2:54 PM,54.0,46.0,75,30.14,6.0,North,11.5,-,N/A,,Haze,360,2013-05-05 19:54:00
3:03 PM,53.6,46.4,77,30.14,6.0,NNW,9.2,-,N/A,,Haze,340,2013-05-05 20:03:00
3:54 PM,55.0,46.9,74,30.13,6.0,NNW,8.1,-,N/A,,Haze,340,2013-05-05 20:54:00
4:54 PM,55.0,46.9,74,30.12,7.0,North,9.2,-,N/A,,Overcast,360,2013-05-05 21:54:00
5:54 PM,55.9,48.0,75,30.12,6.0,North,12.7,-,N/A,,Haze,360,2013-05-05 22:54:00
7:54 PM,55.0,46.9,74,30.11,4.0,North,10.4,-,N/A,,Haze,360,2013-05-06 00:54:00
8:54 PM,53.1,46.9,80,30.12,7.0,North,6.9,-,N/A,,Overcast,350,2013-05-06 01:54:00
9:54 PM,52.0,46.0,80,30.13,10.0,NNW,8.1,-,N/A,,Overcast,340,2013-05-06 02:54:00
10:54 PM,51.1,46.0,83,30.14,10.0,NNW,5.8,-,N/A,,Overcast,330,2013-05-06 03:54:00
11:54 PM,50.0,46.0,86,30.14,8.0,NW,8.1,-,N/A,,Overcast,320,2013-05-06 04:54:00